Location: ????????
(55.4717°N, 39.1821°E)
Time: 01:27:34
(UTC+00:00)

Cosmos 1470 Rocket - Pass Details

Date: 14 April 2024
Orbit: 601 x 629 km, 82.5° (Epoch: 18 May)

Event Time Altitude Azimuth Distance (km) Brightness Sun altitude
Rises 01:14:43 0° 348° (NNW) 2,889 7.3 -9.3°
Reaches altitude 10° 01:16:56 10° 349° (NNW) 1,983 6.4 -9.0°
Maximum altitude 01:21:21 86° 77° (ENE) 626 3.6 -8.5°
Drops below altitude 10° 01:25:45 10° 168° (SSE) 1,985 6.0 -8.0°
Sets 01:27:59 0° 169° (SSE) 2,891 6.8 -7.7°
